カタログに戻る

KUIPER-00413

運用中通信LEO
NORAD 68928·PAYLOAD·🇺🇸 United States

打ち上げ Apr 30, 2026 から Guiana Space Centre

Loading…

次のパス (今後24時間)

TLE

最新Source: CelesTrak SupGP

元期: Sep 14, 2026, 22:27 UTC

1 68928C 26098K   26257.93591435  .00003764  00000+0  49266-3 0  2575
2 68928  51.9003  23.7845 0000762 152.7334 319.4178 14.79933254    13

AllMySatでKUIPER-00413をリアルタイム追跡

Download on the App Store